Regional Weather Roundup
Issued by NWS Kansas City/Pleasant Hill, MO

Home | Current Version | Previous Version | Text Only | Print | Product List | Glossary On
Versions: 1 2 3 4 5 6 7 8 9 10 11 12 13 14 15 16 17 18 19 20 21 22 23 24 25 26 27 28 29 30 31 32 33 34 35 36 37 38 39 40 41 42 43 44 45 46 47 48 49 50
000
ASUS43 KEAX 231204
RWREAX

WEATHER ROUNDUP FOR EASTERN KANSAS AND NORTHWEST MISSOURI
NATIONAL WEATHER SERVICE KANSAS CITY/PLEASANT HILL MO
700 AM CDT TUE SEP 23 2014

KSZ040-057-103>105-MOZ028-029-037-043-231300-
...KANSAS CITY METROPOLITAN AREA...

CITY           SKY/WX    TMP DP  RH WIND       PRES   REMARKS
K.C. INTL      CLOUDY    54  50  86 S7        30.22S
6HR MIN TEMP:  52; 6HR MAX TEMP:  56;

K.C. DOWNTOWN  CLOUDY    61  49  64 S10       30.22S
6HR MIN TEMP:  58; 6HR MAX TEMP:  63;

LEES SUMMIT    PTCLDY    57  49  74 SE7       30.24S
6HR MIN TEMP:  56; 6HR MAX TEMP:  60;

OLATHE - IXD   MOCLDY    55  50  83 SE6       30.23R
6HR MIN TEMP:  53; 6HR MAX TEMP:  57;

OLATHE - OJC   CLOUDY    54  49  83 SE6       30.22S
6HR MIN TEMP:  54; 6HR MAX TEMP:  58;

LAWRENCE       MOCLDY    54  51  90 CALM      30.24R

$$

MOZ001>008-011>017-020>025-030>033-038>040-044>046-053-054-231300-
...NORTHERN AND CENTRAL MISSOURI...

CITY           SKY/WX    TMP DP  RH WIND       PRES   REMARKS
ST. JOSEPH     CLOUDY    55  52  89 SW6       30.24R
6HR MIN TEMP:  48; 6HR MAX TEMP:  56;

MOSBY          PTSUNNY   48  48 100 CALM      30.24S
WHITEMAN AFB   CLEAR     52  48  87 VRB3      30.24S
CLINTON        CLEAR     52  50  93 CALM      30.26R
SEDALIA        CLEAR     50  46  86 S6        30.26S
6HR MIN TEMP:  49; 6HR MAX TEMP:  57;

WARSAW         NOT AVBL
MARSHALL       CLEAR     52  50  93 E3        30.27S
CHILLICOTHE      N/A     52  49  89 CALM      30.27R
6HR MIN TEMP:  50; 6HR MAX TEMP:  55; 6HR PCP:  0.01;

MOBERLY        CLEAR     48  45  87 SE5       30.28S HAZE
KIRKSVILLE     PTCLDY    50  32  50 S6        30.29R
6HR MIN TEMP:  46; 6HR MAX TEMP:  53;


$$

MOZ041-047>049-056>058-063>065-088>090-097-231300-
...EASTERN AND SOUTHERN MISSOURI...

CITY           SKY/WX    TMP DP  RH WIND       PRES   REMARKS
ST. LOUIS INTL PTCLDY    52  48  86 E3        30.30R
6HR MIN TEMP:  52; 6HR MAX TEMP:  57;

SPIRIT OF STL  CLEAR     45  44  97 CALM      30.29R
COLUMBIA       CLEAR     50  47  89 SE5       30.28R
JEFFERSON CITY CLEAR     46  45  96 CALM      30.28R
MEXICO         CLEAR    N/A N/A N/A CALM      30.28S
ROLLA          CLEAR     51  44  77 SE9       30.27R
LEBANON        CLEAR     50  45  81 CALM      30.28R
OSAGE BEACH    CLEAR     48  43  81 SE3       30.27R
SPRINGFIELD    CLEAR     52  47  83 S5        30.26R
BRANSON        PTCLDY    50  48  93 SE7       30.26S
NEVADA         PTCLDY    52  48  87 SE6       30.25S
JOPLIN         PTCLDY    54  50  86 SE6       30.23S
WEST PLAINS    CLEAR     44  41  89 CALM      30.28S

$$

IAZ060-094-KSZ022-034>040-054-083-096-NEZ052-066-093-231300-
...KANSAS...SOUTHEAST NEBRASKA AND IOWA...

CITY           SKY/WX    TMP DP  RH WIND       PRES   REMARKS
TOPEKA         MOCLDY    57  53  86 CALM      30.23R
6HR MIN TEMP:  54; 6HR MAX TEMP:  58;

MANHATTAN      CLOUDY    58  53  84 S5        30.21R
EMPORIA        PTCLDY    53  51  93 CALM      30.22R
CHANUTE        PTCLDY    54  52  93 SE6       30.22R
WICHITA        CLOUDY    58  51  78 SE7       30.18F
OMAHA          CLOUDY    61  52  72 S10       30.18R
LINCOLN        CLOUDY    60  52  74 S9        30.16S
FALLS CITY     CLOUDY    57  53  86 S3        30.21R
LAMONI         CLOUDY    53  49  86 S6        30.24R
DES MOINES     PTCLDY    54  48  80 S8        30.23S

$$



USA.gov is the U.S. government's official web portal to all federal, state and local government web resources and services.